Location: Boone Canyon
(38.3180°N, 119.2504°W)
Time: 17:50:53
(UTC+00:00)

SL-4 R/B - Pass Details

Date: 18 September 2020
Orbit: 428 x 666 km, 51.6° (Epoch: 19 October)

Event Time Altitude Azimuth Distance (km) Brightness Sun altitude
Exits shadow 12:36:28 13° 216° (SW) 1,780 4.2 -13.5°
Maximum altitude 12:40:28 63° 137° (SE) 710 2.7 -12.7°
Drops below altitude 10° 12:45:12 10° 56° (ENE) 2,068 6.1 -11.8°
Sets 12:47:36 0° 54° (NE) 2,996 7.1 -11.4°
